Regional Weather Roundup
Issued by NWS Wakefield, VA

Home | Current Version | Previous Version | Text Only | Print | Product List | Glossary On
Versions: 1 2 3 4 5 6 7 8 9 10 11 12 13 14 15 16 17 18 19 20 21 22 23 24 25 26 27
000
ASUS41 KAKQ 171115
RWRAKQ

REGIONAL WEATHER ROUNDUP
NATIONAL WEATHER SERVICE WAKEFIELD VA
600 AM EST WED JAN 17 2018

Note: "fair" indicates few or no clouds below 12,000 feet with no
significant weather and/or obstructions to visibility. * = Denotes
station may not report precipitation (e.g., rain,snow,etc.),
thunder or fog.

VAZ042-051-052>054-056-171200-
NORTHERN VIRGINIA

CITY           SKY/WX    TMP DP  RH WIND       PRES   REMARKS
WASH NATIONAL  LGT SNOW  27  22  81 NW24G30   30.39R WCI  12
DULLES         LGT SNOW  24  20  84 N13       30.38R FOG     WCI  12
FORT BELVOIR   MIX PCPN  27  21  80 NW7       30.37R
QUANTICO       NOT AVBL
FREDERICKSBRG* FLURRIES  31  27  85 N10G16    30.35S WCI  22
STAFFORD*      FLURRIES  30  27  89 N14       30.40R WCI  19
WARRENTON      LGT SNOW  27  21  77 N7        30.36R
CULPEPER*      LGT SNOW  28  24  85 N7        30.37R
MANASSAS*      LGT SNOW  27  23  86 N10       30.38S FOG     WCI  17
LEESBURG*      CLOUDY    27  21  80 N12G17    30.39R WCI  16
WINCHESTER     FLURRIES  21  12  68 NW14      30.40R WCI   8
FRONT ROYAL*   CLOUDY    23  16  74 NE9G17    30.36R
LURAY*         FLURRIES  27  25  93 NE6       30.34R
$$

VAZ048-049-060>072-079>083-171200-
CENTRAL AND SOUTH CENTRAL VIRGINIA

CITY           SKY/WX    TMP DP  RH WIND       PRES   REMARKS
RICHMOND       LGT SNOW  33  30  88 N9        30.32R FOG
CHESTERFIELD*  NOT AVBL
PETERSBURG*    CLOUDY    36  27  69 N6        30.31S
HANOVER        LGT SNOW  32  29  88 VRB5      30.34R FOG
TAPPAHANNOCK*  CLOUDY    33  30  89 NW7G16    30.33R
QUINTON*       CLOUDY    33  30  89 N6        30.31R
CHARLOTTSVILLE LGT SNOW  31  28  89 N5        30.31S FOG
GORDONSVILLE*  CLOUDY    29  28  97 NE5       30.33R FOG
ORANGE*        LGT SNOW  28  27  93 CALM      30.33S
LOUISA*        LGT SNOW  28  27  93 N6        30.37R FOG
BUMPASS*       CLOUDY    30  29  95 N5        30.33R
FARMVILLE*     LGT SNOW  32  32 100 N5        30.29S
CREWE*         CLOUDY    32  29  90 N3        30.29R
FORT PICKETT*  CLOUDY    32  32  99 N7        30.29R
CHASE CITY*    CLOUDY    32  32 100 CALM      30.28R
CLARKSVILLE*   CLOUDY    34  27  75 NW6       30.27S
SOUTH HILL*    CLOUDY    33  29  85 N5        30.33R
LAWRENCEVILLE* CLOUDY    35  26  70 CALM      30.28R
EMPORIA*       MOCLDY    30  28  93 CALM      30.29S
$$

VAZ088>098-171200-
SOUTHEAST VIRGINIA

CITY           SKY/WX    TMP DP  RH WIND       PRES   REMARKS
NORFOLK        FAIR      33  31  92 N3        30.29R FOG
VIRGINIA BEACH CLOUDY    36  24  62 NW3       30.28R
NORFOLK NAVAL  MOCLDY    33  30  88 N5        30.30R FOG
WEST POINT*    FAIR      32  29  89 CALM      30.33S
SALUDA*        FAIR      32  31  94 NW5       30.30S
NEWPORT NEWS   FAIR      32  29  88 N6        30.29S
LANGLEY AFB    FAIR      31  31  98 N5        30.28R
FORT EUSTIS    FAIR      33  29  85 CALM      30.27R
WILLIAMSBURG*  FAIR      32  28  86 CALM      30.30S
HR EXEC AP*    FAIR      26  25  96 CALM      30.29R
FRANKLIN*      CLOUDY    28  27  96 CALM      30.28F
US460-WAKEFLD  FAIR      32  29  88 N3        30.29S
$$

VAZ020-022-025-037-045-171200-
WEST CENTRAL AND SOUTHWEST VIRGINIA

CITY           SKY/WX    TMP DP  RH WIND       PRES   REMARKS
STAUNTON*      LGT SNOW  26  24  92 N8        30.32R
WAYNESBORO*    CLOUDY    26  25  95 N5        30.28R
HOT SPRINGS VA LGT SNOW  14  13  95 NW7       30.14R
LYNCHBURG      LGT SNOW  29  27  92 VRB5      30.28S FOG
DANVILLE       LGT SNOW  30  29  96 NW9       30.30R FOG
SOUTH BOSTON*  CLOUDY    32  31  96 N3        30.29R
MARTINSVILLE   LGT SNOW  27  24  90 N5        30.31S
ROANOKE        LGT SNOW  25  21  85 N6        30.33R FOG
BLACKSBURG     LGT SNOW  18  15  89 W3        30.29S
DUBLIN*        LGT SNOW  19  14  81 N9        30.29R
MARION*        LGT SNOW  17  10  75 NW8       30.28R
HILLSVILLE*    LGT SNOW  17  15  92 N10       30.21R WCI   5
RICHLANDS*     FLURRIES  10   7  88 NW8       30.28S
WISE*          LGT SNOW   7   5  92 N6        30.30S
ABINGDON*      LGT SNOW  18  12  79 CALM      30.30S
$$

MDZ021>025-VAZ099-100-171200-
SOUTHERN MARYLAND AND THE DELMARVA PENINSULA

CITY           SKY/WX    TMP DP  RH WIND       PRES   REMARKS
PATUXENT RIVER NOT AVBL
BAY BRIDGE APT LGT SNOW  32  30  93 NW8       30.34R FOG
LEONARDTOWN    CLOUDY    32  30  93 NW5       30.34S
DOVER          FLURRIES  34  34 100 NW9       30.29R
GEORGETOWN     CLOUDY    36  31  82 NW6       30.29R
EASTON         MOCLDY    32  30  93 NW12      30.35R WCI  23
CAMBRIDGE      CLOUDY    32  32 100 NW10      30.32R FOG     WCI  24
SALISBURY      CLOUDY    35  31  85 W8        30.30R
OCEAN CITY     CLOUDY    36  34  92 NW8       30.28R
WALLOPS ISLAND FAIR      35  32  88 NW13G18   30.29R
ACCOMACK*      FAIR      33  32  94 NW7       30.30R
$$

NCZ012>017-030>032-171200-
NORTH CENTRAL AND EASTERN NORTH CAROLINA

CITY           SKY/WX    TMP DP  RH WIND       PRES   REMARKS
ROANOKE RAPIDS FAIR      30  27  86 CALM      30.27S
RALEIGH        FLURRIES  36  28  73 CALM      30.26S
ELIZABETH CITY FAIR      30  30 100 CALM      30.28S
AHOSKIE*       MOCLDY    28  28 100 CALM      30.28S
EDENTON*       NOT AVBL
CURRITUCK*     FAIR      29  29 100 CALM      30.29R
KILL DEVIL HLS FAIR     N/A N/A N/A CALM      30.27R
MANTEO           N/A     29  29 100 N3        30.28S FOG
CAPE HATTERAS  FAIR      37  37 100 N5        30.27S
TARBORO*       NOT AVBL
GOLDSBORO      FAIR      31  26  83 CALM      30.24S
WASHINGTON     FAIR      29  28  96 CALM      30.27F
GREENVILLE     FAIR      30  28  93 CALM      30.27F
NEW BERN       FAIR      29  28  96 CALM      30.27F
WILMINGTON     FAIR      30  29  96 CALM      30.25F
$$

VAZ048-171200-
ELSEWHERE

CITY           SKY/WX    TMP DP  RH WIND       PRES   REMARKS
HARRISBURG PA  LGT SNOW  24  20  84 NW14      30.36R FOG     WCI  12
BALTIMORE      LGT SNOW  29  28  96 NW9       30.34R VSB 3/4
ANNAPOLIS      LGT SNOW  33  31  92 NW10G17   30.34R VSB 1   WCI  25
ANDREWS AFB    LGT SNOW  28  25  86 NW15      30.35R FOG     WCI  17
PHILADELPHIA   LGT SNOW  34  31  88 NW8       30.29S FOG
HENDERSON NC   LGT RAIN  34  27  75 NW5       30.27R
GREENSBORO     LGT SNOW  30  29  96 N8        30.25S FOG
ROCKY MOUNT    FAIR      30  28  92 CALM      30.27S
$$

VAZ100-171200-
MARINE

STATION/POSITION TIME  TEMP    WIND        PRES    WAVE   SWELL
                       AIR SEA DIR/SP/G            HT/PER HT/PER
                 (UTC) (F)     (DEG/KT/KT) (MB)    (FT/S) (FT/S)
BRANDYWINE LGT   1042   34     340/ 16/ 21 1025.3R
CAPE MAY NJ      1048   33 34  330/  6/ 15 1024.4R
LEWES DE         1048   35 35  330/ 14/ 18 1025.1R
15NM E FENWICK I 1050   38 43  310/ 16/ 19 1024.3S   5/11   5/11
OCEAN-CITY-INLET 1048   36 35  330/  9/ 11 1025.2R
WACHAPREAGUE VA  1048   34 35  330/  5/ 11 1025.6R
THOMAS POINT MD  1100   31 32  310/ 12/ 14   N/A
GOOSES REEF MD   1100   32 33  320/ 14/ 17 1027.8    1/ 2
COVE POINT MD    1048   32     340/ 16/ 18 1027.6R
SOLOMONS ISLAND  1048   32 34  320/  9/ 14 1026.7R
BISHOPS HEAD MD  1048   33 32  320/ 10/ 12 1026.6R
PINEY POINT MD   1048          350/ 13/ 14   N/A
POTOMAC MD       1100   33 34  350/ 10/ 14 1026.0    1/ 2
CAMBRIDGE MD     1048   32 32              1027.4R
LEWISETTA VA     1048   33 33  350/  9/ 12 1026.8R
RAPPAHANNOCK LGT 1048          350/ 15/ 16 1026.2R
STINGRAY PT      1100   34 34   10/ 10/ 12 1028.4
YORK RVR RNG VA  1048   34     360/  9/ 10 1026.3R
YORKTOWN VA      1048   33 35  340/  5/  6 1025.7R
DOMINION TERM VA 1048   34      20/  2/  3 1025.9R
KIPTOPEKE VA     1048      35  360/  6/  9   N/A
CAPE HENRY VA    1048   35     340/  9/ 10   N/A
WILLOUBY STN VA  1042           20/  5/  6 1025.6R
S CRANEY ISL VA  1048   33     340/  4/  4 1025.5R
CAPE HENRY BUOY  1030      42                N/A     4/11   2/11
1ST LANDING BUOY 1100   33 35   10/  8/ 10 1025.6    2/ 6
CAPE CHARLES BUO 1021      37                N/A     4/13   2/13
64NM E OF VA BCH 1050   44 54  320/ 16/ 19 1024.6F   6/12   5/12
DUCK PIER NC     1048   36 39  320/  7/  8 1024.7R
44100 DUCK FRF   1045      43                N/A     5/12   3/12
44056 DUCK FRF   1030      39                N/A     4/11   3/11
OREGON INLET NC  1042   35 42  320/  2/  5 1025.2R
HATTERAS NC      1048   39 47   10/  8/ 10 1024.7R
DIAMOND SHLS NC  1100   49 70  360/ 14/ 16 1024.8
CAPE LOOKOUT NC  1100          340/  6/  8 1024.7R
$$




USA.gov is the U.S. government's official web portal to all federal, state and local government web resources and services.